| time (UTC) | temp F | wind direction | speed knots | gust knots | rain 1hr in | rain 24hr in | rain mn in | humidity % | barometer mb |
| 20260904090848 | 60 | 86 | 5.2 | 7.8 | 0.00 | 0.00 | 0.00 | 87 | 1012.6 |
| 20260904090348 | 60 | 84 | 6.1 | 7.8 | 0.00 | 0.00 | 0.00 | 87 | 1012.5 |
| 20260904085852 | 61 | 79 | 5.2 | 7.8 | 0.00 | 0.00 | 0.00 | 87 | 1012.5 |
| 20260904085848 | 61 | 68 | 6.1 | 7.8 | 0.00 | 0.00 | 0.00 | 86 | 1012.7 |
| 20260904085459 | 61 | 86 | 5.2 | 7.0 | 0.00 | 0.00 | 0.00 | 85 | 1012.7 |
| 20260904085452 | 61 | 78 | 5.2 | 7.8 | 0.00 | 0.00 | 0.00 | 86 | 1012.6 |
| 20260904083847 | 62 | 91 | 5.2 | 8.7 | 0.00 | 0.00 | 0.00 | 84 | 1012.7 |
| 20260904083347 | 62 | 98 | 6.1 | 8.7 | 0.00 | 0.00 | 0.00 | 82 | 1012.7 |
| 20260904082846 | 62 | 91 | 6.1 | 8.7 | 0.00 | 0.00 | 0.00 | 78 | 1012.7 |
| 20260904082346 | 61 | 88 | 7.0 | 8.7 | 0.00 | 0.00 | 0.00 | 77 | 1012.8 |
| 20260904081847 | 61 | 86 | 7.8 | 9.6 | 0.00 | 0.00 | 0.00 | 75 | 1012.7 |
| 20260904081346 | 61 | 86 | 7.8 | 9.6 | 0.00 | 0.00 | 0.00 | 78 | 1012.8 |
| 20260904080847 | 61 | 90 | 7.8 | 9.6 | 0.00 | 0.00 | 0.00 | 80 | 1012.9 |
| 20260904080345 | 61 | 90 | 7.8 | 9.6 | 0.00 | 0.00 | 0.00 | 80 | 1012.9 |
| 20260904075849 | 62 | 92 | 7.8 | 9.6 | 0.00 | 0.00 | 0.00 | 75 | 1013.0 |
| 20260904075845 | 62 | 98 | 7.8 | 9.6 | 0.00 | 0.00 | 0.00 | 78 | 1012.9 |
| 20260904074848 | 62 | 100 | 7.0 | 8.7 | 0.00 | 0.00 | 0.00 | 70 | 1013.1 |
| 20260904074844 | 62 | 101 | 7.0 | 8.7 | 0.00 | 0.00 | 0.00 | 70 | 1013.1 |
| 20260904073844 | 62 | 97 | 7.0 | 8.7 | 0.00 | 0.00 | 0.00 | 66 | 1013.0 |
| 20260904073344 | 62 | 98 | 7.0 | 8.7 | 0.00 | 0.00 | 0.00 | 66 | 1013.0 |
| 20260904072844 | 62 | 96 | 7.0 | 8.7 | 0.00 | 0.00 | 0.00 | 65 | 1013.0 |
| 20260904072344 | 63 | 98 | 7.0 | 8.7 | 0.00 | 0.00 | 0.00 | 66 | 1013.0 |
| 20260904071849 | 63 | 97 | 7.0 | 8.7 | 0.00 | 0.00 | 0.00 | 65 | 1012.9 |
| 20260904071844 | 63 | 96 | 7.0 | 8.7 | 0.00 | 0.00 | 0.00 | 65 | 1012.9 |
| 20260904070845 | 63 | 96 | 7.0 | 8.7 | 0.00 | 0.00 | 0.00 | 66 | 1012.9 |
| 20260904070348 | 64 | 96 | 7.0 | 8.7 | 0.00 | 0.00 | 0.00 | 54 | 1012.8 |
| 20260904070344 | 64 | 94 | 7.0 | 8.7 | 0.00 | 0.00 | 0.00 | 61 | 1012.8 |
| 20260904065349 | 64 | 103 | 6.1 | 8.7 | 0.00 | 0.00 | 0.00 | 58 | 1012.9 |
| 20260904065345 | 64 | 102 | 6.1 | 7.8 | 0.00 | 0.00 | 0.00 | 56 | 1012.9 |
| 20260904064955 | 64 | 96 | 6.1 | 7.8 | 0.00 | 0.00 | 0.00 | 59 | 1012.9 |
| 20260904064948 | 64 | 101 | 7.0 | 8.7 | 0.00 | 0.00 | 0.00 | 56 | 1012.9 |
| 20260904063342 | 64 | 89 | 6.1 | 7.8 | 0.00 | 0.00 | 0.00 | 61 | 1012.8 |
| 20260904062842 | 64 | 90 | 6.1 | 7.8 | 0.00 | 0.00 | 0.00 | 57 | 1012.8 |
| 20260904062346 | 64 | 89 | 6.1 | 7.8 | 0.00 | 0.00 | 0.00 | 57 | 1012.8 |
| 20260904062342 | 64 | 92 | 6.1 | 7.8 | 0.00 | 0.00 | 0.00 | 58 | 1012.9 |
| 20260904061342 | 64 | 92 | 6.1 | 7.8 | 0.00 | 0.00 | 0.00 | 57 | 1012.8 |
| 20260904060840 | 64 | 77 | 5.2 | 7.8 | 0.00 | 0.00 | 0.00 | 60 | 1012.7 |
| 20260904060340 | 64 | 78 | 4.3 | 7.0 | 0.00 | 0.00 | 0.00 | 63 | 1012.8 |
| 20260904055846 | 64 | 59 | 4.3 | 5.2 | 0.00 | 0.00 | 0.00 | 77 | 1012.7 |
| 20260904055840 | 64 | 61 | 4.3 | 5.2 | 0.00 | 0.00 | 0.00 | 75 | 1012.7 |
| 20260904054840 | 64 | 42 | 5.2 | 7.0 | 0.00 | 0.00 | 0.00 | 77 | 1012.8 |
| 20260904054338 | 64 | 40 | 5.2 | 7.0 | 0.00 | 0.00 | 0.00 | 76 | 1012.8 |
| 20260904053842 | 64 | 32 | 5.2 | 7.0 | 0.00 | 0.00 | 0.00 | 78 | 1012.9 |
| 20260904053837 | 64 | 32 | 5.2 | 7.0 | 0.00 | 0.00 | 0.00 | 79 | 1012.8 |
| 20260904052836 | 64 | 32 | 5.2 | 7.0 | 0.00 | 0.00 | 0.00 | 79 | 1012.9 |
| 20260904052339 | 64 | 32 | 5.2 | 7.0 | 0.00 | 0.00 | 0.00 | 80 | 1012.8 |
| 20260904052335 | 64 | 32 | 4.3 | 7.0 | 0.00 | 0.00 | 0.00 | 81 | 1012.8 |
| 20260904051334 | 64 | 32 | 4.3 | 7.0 | 0.00 | 0.00 | 0.00 | 81 | 1012.9 |
| 20260904050833 | 64 | 24 | 4.3 | 5.2 | 0.00 | 0.00 | 0.00 | 81 | 1013.0 |
| 20260904050335 | 64 | 24 | 3.5 | 5.2 | 0.00 | 0.00 | 0.00 | 81 | 1013.0 |
| 20260904045834 | 65 | 22 | 3.5 | 4.3 | 0.00 | 0.00 | 0.00 | 81 | 1013.0 |
| 20260904045338 | 65 | 5 | 3.5 | 4.3 | 0.00 | 0.00 | 0.00 | 81 | 1013.0 |
| 20260904045334 | 65 | 18 | 3.5 | 4.3 | 0.00 | 0.00 | 0.00 | 81 | 1013.0 |
| 20260904044333 | 65 | 5 | 3.5 | 4.3 | 0.00 | 0.00 | 0.00 | 81 | 1012.9 |
| 20260904043834 | 65 | 5 | 3.5 | 4.3 | 0.00 | 0.00 | 0.00 | 82 | 1012.8 |
| 20260904043443 | 65 | 0 | 4.3 | 5.2 | 0.00 | 0.00 | 0.00 | 82 | 1012.9 |
| 20260904043334 | 65 | 5 | 3.5 | 4.3 | 0.00 | 0.00 | 0.00 | 82 | 1012.8 |
| 20260904042836 | 65 | 355 | 3.5 | 4.3 | 0.00 | 0.00 | 0.00 | 82 | 1012.9 |
| 20260904042832 | 65 | 0 | 3.5 | 4.3 | 0.00 | 0.00 | 0.00 | 82 | 1012.9 |
| 20260904041939 | 65 | 282 | 3.5 | 5.2 | 0.00 | 0.00 | 0.00 | 82 | 1012.8 |
| 20260904041332 | 65 | 5 | 4.3 | 5.2 | 0.00 | 0.00 | 0.00 | 82 | 1012.8 |
| 20260904040332 | 65 | 261 | 3.5 | 5.2 | 0.00 | 0.00 | 0.00 | 82 | 1012.8 |
| 20260904035837 | 65 | 228 | 0.9 | 3.5 | 0.00 | 0.00 | 0.00 | 81 | 1012.7 |
| 20260904035832 | 65 | 259 | 2.6 | 3.5 | 0.00 | 0.00 | 0.00 | 82 | 1012.7 |
| 20260904034832 | 65 | 205 | 0.0 | 0.9 | 0.00 | 0.00 | 0.00 | 81 | 1012.7 |
| 20260904034332 | 65 | 119 | 0.0 | 0.9 | 0.00 | 0.00 | 0.00 | 81 | 1012.7 |
| 20260904033830 | 65 | 119 | 0.0 | 0.9 | 0.00 | 0.00 | 0.00 | 81 | 1012.6 |
| 20260904033330 | 65 | 119 | 0.0 | 0.0 | 0.00 | 0.00 | 0.00 | 80 | 1012.5 |
| 20260904032829 | 65 | 119 | 0.0 | 3.5 | 0.00 | 0.00 | 0.00 | 80 | 1012.5 |
| 20260904032330 | 65 | 119 | 0.0 | 3.5 | 0.00 | 0.00 | 0.00 | 80 | 1012.5 |
| 20260904031830 | 65 | 119 | 0.9 | 3.5 | 0.00 | 0.00 | 0.00 | 80 | 1012.4 |
| 20260904031330 | 65 | 119 | 0.9 | 3.5 | 0.00 | 0.00 | 0.00 | 80 | 1012.4 |
| 20260904030830 | 65 | 117 | 0.0 | 2.6 | 0.00 | 0.00 | 0.00 | 79 | 1012.4 |
| 20260904030330 | 65 | 174 | 0.9 | 2.6 | 0.00 | 0.00 | 0.00 | 80 | 1012.4 |
| 20260904025829 | 65 | 174 | 0.9 | 2.6 | 0.00 | 0.00 | 0.00 | 80 | 1012.4 |
| 20260904025334 | 66 | 180 | 0.0 | 1.7 | 0.00 | 0.00 | 0.00 | 77 | 1012.3 |
| 20260904025329 | 66 | 178 | 0.0 | 2.6 | 0.00 | 0.00 | 0.00 | 79 | 1012.4 |
| 20260904024828 | 66 | 178 | 0.0 | 0.9 | 0.00 | 0.00 | 0.00 | 78 | 1012.3 |
| 20260904023826 | 66 | 182 | 0.9 | 2.6 | 0.00 | 0.00 | 0.00 | 77 | 1012.3 |
| 20260904023325 | 67 | 184 | 0.9 | 2.6 | 0.00 | 0.00 | 0.00 | 76 | 1012.4 |
| 20260904022826 | 67 | 232 | 0.0 | 2.6 | 0.00 | 0.00 | 0.00 | 75 | 1012.3 |
| 20260904022323 | 67 | 317 | 0.9 | 2.6 | 0.00 | 0.00 | 0.00 | 75 | 1012.3 |
| 20260904021824 | 67 | 319 | 0.9 | 2.6 | 0.00 | 0.00 | 0.00 | 73 | 1012.3 |
| 20260904021327 | 68 | 313 | 1.7 | 5.2 | 0.00 | 0.00 | 0.00 | 73 | 1012.3 |
| 20260904021323 | 68 | 311 | 2.6 | 5.2 | 0.00 | 0.00 | 0.00 | 72 | 1012.4 |
| 20260904020322 | 68 | 265 | 2.6 | 5.2 | 0.00 | 0.00 | 0.00 | 72 | 1012.4 |
| 20260904015819 | 69 | 248 | 2.6 | 5.2 | 0.00 | 0.00 | 0.00 | 73 | 1012.4 |
| 20260904015320 | 69 | 247 | 2.6 | 5.2 | 0.00 | 0.00 | 0.00 | 72 | 1012.4 |
| 20260904014825 | 70 | 257 | 2.6 | 5.2 | 0.00 | 0.00 | 0.00 | 74 | 1012.3 |
| 20260904014820 | 70 | 244 | 1.7 | 5.2 | 0.00 | 0.00 | 0.00 | 74 | 1012.3 |
| 20260904013819 | 70 | 269 | 1.7 | 3.5 | 0.00 | 0.00 | 0.00 | 74 | 1012.3 |
| 20260904013319 | 71 | 277 | 0.9 | 3.5 | 0.00 | 0.00 | 0.00 | 69 | 1012.4 |
| 20260904012820 | 71 | 275 | 0.9 | 3.5 | 0.00 | 0.00 | 0.00 | 72 | 1012.4 |
| 20260904012320 | 71 | 275 | 0.9 | 3.5 | 0.00 | 0.00 | 0.00 | 72 | 1012.4 |
| 20260904011819 | 71 | 228 | 0.9 | 3.5 | 0.00 | 0.00 | 0.00 | 69 | 1012.4 |
| 20260904011319 | 71 | 228 | 0.9 | 3.5 | 0.00 | 0.00 | 0.00 | 70 | 1012.4 |
| 20260904010819 | 71 | 207 | 0.9 | 2.6 | 0.00 | 0.00 | 0.00 | 64 | 1012.5 |
| 20260904010319 | 71 | 200 | 0.0 | 2.6 | 0.00 | 0.00 | 0.00 | 70 | 1012.5 |
| 20260904005820 | 70 | 186 | 0.0 | 3.5 | 0.00 | 0.00 | 0.00 | 72 | 1012.5 |
| 20260904005320 | 70 | 196 | 0.0 | 3.5 | 0.00 | 0.00 | 0.00 | 68 | 1012.5 |
| 20260904004819 | 69 | 199 | 0.0 | 3.5 | 0.00 | 0.00 | 0.00 | 68 | 1012.5 |
| 20260904004319 | 69 | 196 | 0.9 | 3.5 | 0.00 | 0.00 | 0.00 | 64 | 1012.5 |
| 20260904003825 | 68 | 199 | 2.6 | 6.1 | 0.00 | 0.00 | 0.00 | 78 | 1012.6 |
| 20260904003819 | 68 | 233 | 1.7 | 4.3 | 0.00 | 0.00 | 0.00 | 73 | 1012.6 |
| 20260904003423 | 68 | 211 | 2.6 | 5.2 | 0.00 | 0.00 | 0.00 | 75 | 1012.7 |
| 20260904002924 | 68 | 188 | 2.6 | 6.1 | 0.00 | 0.00 | 0.00 | 79 | 1012.6 |
| 20260904002425 | 67 | 211 | 2.6 | 7.8 | 0.00 | 0.00 | 0.00 | 77 | 1012.6 |
| 20260904001317 | 67 | 220 | 2.6 | 7.8 | 0.00 | 0.00 | 0.00 | 82 | 1012.7 |
| 20260904000818 | 67 | 192 | 3.5 | 7.8 | 0.00 | 0.00 | 0.00 | 82 | 1012.8 |
| 20260904000318 | 67 | 204 | 4.3 | 7.8 | 0.00 | 0.00 | 0.00 | 82 | 1012.8 |
| 20260903235817 | 67 | 209 | 4.3 | 7.8 | 0.00 | 0.00 | 0.00 | 82 | 1012.8 |
| 20260903235315 | 68 | 227 | 5.2 | 7.8 | 0.00 | 0.00 | 0.00 | 81 | 1012.8 |
| 20260903234815 | 68 | 209 | 4.3 | 7.8 | 0.00 | 0.00 | 0.00 | 80 | 1012.8 |
| 20260903234316 | 69 | 229 | 3.5 | 7.0 | 0.00 | 0.00 | 0.00 | 80 | 1012.9 |
| 20260903233815 | 68 | 174 | 4.3 | 7.0 | 0.00 | 0.00 | 0.00 | 78 | 1012.9 |
| 20260903233314 | 69 | 190 | 4.3 | 7.0 | 0.00 | 0.00 | 0.00 | 79 | 1013.0 |
| 20260903232815 | 69 | 167 | 3.5 | 8.7 | 0.00 | 0.00 | 0.00 | 81 | 1013.0 |
| 20260903232811 | 69 | 220 | 3.5 | 8.7 | 0.00 | 0.00 | 0.00 | 78 | 1013.0 |
| 20260903231811 | 68 | 190 | 3.5 | 8.7 | 0.00 | 0.00 | 0.00 | 81 | 1013.1 |
| 20260903231309 | 69 | 217 | 3.5 | 8.7 | 0.00 | 0.00 | 0.00 | 80 | 1013.0 |
| 20260903230809 | 68 | 189 | 4.3 | 7.8 | 0.00 | 0.00 | 0.00 | 81 | 1013.0 |
| 20260903230311 | 68 | 181 | 5.2 | 8.7 | 0.00 | 0.00 | 0.00 | 82 | 1013.2 |
| 20260903230307 | 68 | 171 | 5.2 | 7.8 | 0.00 | 0.00 | 0.00 | 80 | 1013.1 |
| 20260903225307 | 67 | 204 | 4.3 | 8.7 | 0.00 | 0.00 | 0.00 | 81 | 1013.2 |
| 20260903224807 | 68 | 188 | 4.3 | 8.7 | 0.00 | 0.00 | 0.00 | 81 | 1013.2 |
| 20260903224308 | 68 | 192 | 4.3 | 7.8 | 0.00 | 0.00 | 0.00 | 80 | 1013.1 |
| 20260903223805 | 68 | 178 | 5.2 | 8.7 | 0.00 | 0.00 | 0.00 | 82 | 1013.2 |
| 20260903223305 | 67 | 183 | 6.1 | 9.6 | 0.00 | 0.00 | 0.00 | 83 | 1013.4 |
| 20260903222806 | 67 | 196 | 6.1 | 12.2 | 0.00 | 0.00 | 0.00 | 83 | 1013.5 |
| 20260903222306 | 67 | 194 | 7.0 | 12.2 | 0.00 | 0.00 | 0.00 | 83 | 1013.5 |
| 20260903221809 | 66 | 180 | 7.0 | 10.4 | 0.00 | 0.00 | 0.00 | 84 | 1013.6 |
| 20260903221805 | 66 | 164 | 7.0 | 10.4 | 0.00 | 0.00 | 0.00 | 83 | 1013.6 |
| 20260903220805 | 66 | 155 | 7.0 | 12.2 | 0.00 | 0.00 | 0.00 | 83 | 1013.6 |
| 20260903220305 | 66 | 181 | 7.0 | 12.2 | 0.00 | 0.00 | 0.00 | 82 | 1013.7 |
| 20260903215805 | 67 | 169 | 7.0 | 12.2 | 0.00 | 0.00 | 0.00 | 81 | 1013.7 |
| 20260903215306 | 67 | 170 | 7.0 | 12.2 | 0.00 | 0.00 | 0.00 | 81 | 1013.7 |
| 20260903214803 | 67 | 171 | 7.0 | 12.2 | 0.00 | 0.00 | 0.00 | 81 | 1013.7 |
| 20260903214303 | 67 | 134 | 7.0 | 12.2 | 0.00 | 0.00 | 0.00 | 80 | 1013.8 |
| 20260903213803 | 68 | 155 | 6.1 | 12.2 | 0.00 | 0.00 | 0.00 | 79 | 1013.8 |
| 20260903213302 | 69 | 167 | 6.1 | 11.3 | 0.00 | 0.00 | 0.00 | 79 | 1013.8 |
| 20260903212806 | 68 | 150 | 6.1 | 10.4 | 0.00 | 0.00 | 0.00 | 79 | 1013.8 |
| 20260903212802 | 68 | 162 | 6.1 | 11.3 | 0.00 | 0.00 | 0.00 | 79 | 1013.9 |
| 20260903211802 | 67 | 175 | 6.1 | 10.4 | 0.00 | 0.00 | 0.00 | 78 | 1013.9 |
| 20260903211302 | 67 | 157 | 6.1 | 11.3 | 0.00 | 0.00 | 0.00 | 78 | 1013.9 |
| 20260903210803 | 67 | 151 | 6.1 | 11.3 | 0.00 | 0.00 | 0.00 | 78 | 1013.9 |
| 20260903210302 | 68 | 183 | 6.1 | 9.6 | 0.00 | 0.00 | 0.00 | 76 | 1014.0 |
| 20260903205802 | 68 | 137 | 6.1 | 9.6 | 0.00 | 0.00 | 0.00 | 78 | 1014.0 |
| 20260903205306 | 68 | 184 | 6.1 | 12.2 | 0.00 | 0.00 | 0.00 | 77 | 1014.1 |
| 20260903204802 | 67 | 184 | 7.0 | 12.2 | 0.00 | 0.00 | 0.00 | 79 | 1014.1 |
| 20260903204307 | 67 | 168 | 6.1 | 10.4 | 0.00 | 0.00 | 0.00 | 78 | 1014.1 |
| 20260903204302 | 67 | 154 | 6.1 | 12.2 | 0.00 | 0.00 | 0.00 | 78 | 1014.1 |
| 20260903203259 | 67 | 168 | 6.1 | 10.4 | 0.00 | 0.00 | 0.00 | 79 | 1014.1 |
| 20260903202759 | 67 | 174 | 6.1 | 9.6 | 0.00 | 0.00 | 0.00 | 80 | 1014.1 |
| 20260903202256 | 67 | 152 | 7.0 | 10.4 | 0.00 | 0.00 | 0.00 | 79 | 1014.1 |
| 20260903201757 | 67 | 138 | 6.1 | 10.4 | 0.00 | 0.00 | 0.00 | 79 | 1014.1 |
| 20260903201257 | 67 | 150 | 6.1 | 11.3 | 0.00 | 0.00 | 0.00 | 80 | 1014.2 |
| 20260903200757 | 67 | 144 | 6.1 | 11.3 | 0.00 | 0.00 | 0.00 | 81 | 1014.2 |
| 20260903200300 | 66 | 173 | 5.2 | 9.6 | 0.00 | 0.00 | 0.00 | 80 | 1014.3 |
| 20260903200256 | 66 | 142 | 6.1 | 10.4 | 0.00 | 0.00 | 0.00 | 82 | 1014.3 |
| 20260903195254 | 66 | 144 | 7.0 | 10.4 | 0.00 | 0.00 | 0.00 | 82 | 1014.3 |
| 20260903194754 | 66 | 207 | 7.0 | 10.4 | 0.00 | 0.00 | 0.00 | 82 | 1014.4 |
| 20260903194254 | 65 | 159 | 7.0 | 9.6 | 0.00 | 0.00 | 0.00 | 82 | 1014.4 |
| 20260903193759 | 66 | 134 | 6.1 | 12.2 | 0.00 | 0.00 | 0.00 | 83 | 1014.5 |
| 20260903193755 | 66 | 136 | 6.1 | 12.2 | 0.00 | 0.00 | 0.00 | 83 | 1014.4 |
| 20260903192754 | 66 | 190 | 6.1 | 13.0 | 0.00 | 0.00 | 0.00 | 83 | 1014.5 |
| 20260903192255 | 66 | 162 | 6.1 | 13.0 | 0.00 | 0.00 | 0.00 | 83 | 1014.6 |
| 20260903191755 | 66 | 132 | 6.1 | 9.6 | 0.00 | 0.00 | 0.00 | 83 | 1014.6 |
| 20260903191255 | 66 | 188 | 6.1 | 9.6 | 0.00 | 0.00 | 0.00 | 83 | 1014.8 |
| 20260903190754 | 66 | 185 | 6.1 | 9.6 | 0.00 | 0.00 | 0.00 | 83 | 1014.9 |
| 20260903190254 | 66 | 171 | 6.1 | 9.6 | 0.00 | 0.00 | 0.00 | 83 | 1014.9 |
| 20260903185755 | 66 | 153 | 6.1 | 9.6 | 0.00 | 0.00 | 0.00 | 83 | 1015.0 |
| 20260903185255 | 66 | 151 | 6.1 | 9.6 | 0.00 | 0.00 | 0.00 | 83 | 1015.0 |
| 20260903184754 | 66 | 140 | 5.2 | 9.6 | 0.00 | 0.00 | 0.00 | 84 | 1015.0 |
| 20260903184254 | 65 | 169 | 5.2 | 9.6 | 0.00 | 0.00 | 0.00 | 85 | 1015.1 |
| 20260903183754 | 65 | 187 | 5.2 | 9.6 | 0.00 | 0.00 | 0.00 | 85 | 1015.0 |
| 20260903183254 | 65 | 155 | 5.2 | 11.3 | 0.00 | 0.00 | 0.00 | 85 | 1015.1 |
| 20260903182755 | 65 | 142 | 5.2 | 11.3 | 0.00 | 0.00 | 0.00 | 84 | 1015.0 |
| 20260903182254 | 65 | 135 | 4.3 | 8.7 | 0.00 | 0.00 | 0.00 | 86 | 1015.1 |
| 20260903181754 | 65 | 171 | 4.3 | 8.7 | 0.00 | 0.00 | 0.00 | 86 | 1015.1 |
| 20260903181258 | 65 | 146 | 4.3 | 8.7 | 0.00 | 0.00 | 0.00 | 86 | 1015.2 |
| 20260903181254 | 65 | 151 | 4.3 | 8.7 | 0.00 | 0.00 | 0.00 | 85 | 1015.2 |
| 20260903180254 | 64 | 148 | 4.3 | 8.7 | 0.00 | 0.00 | 0.00 | 85 | 1015.3 |
| 20260903175755 | 65 | 161 | 4.3 | 8.7 | 0.00 | 0.00 | 0.00 | 85 | 1015.2 |
| 20260903175255 | 65 | 92 | 4.3 | 9.6 | 0.00 | 0.00 | 0.00 | 86 | 1015.3 |
| 20260903174754 | 65 | 140 | 5.2 | 9.6 | 0.00 | 0.00 | 0.00 | 85 | 1015.3 |
| 20260903174255 | 64 | 138 | 4.3 | 9.6 | 0.00 | 0.00 | 0.00 | 87 | 1015.2 |
| 20260903173754 | 64 | 132 | 3.5 | 9.6 | 0.00 | 0.00 | 0.00 | 89 | 1015.1 |
| 20260903173254 | 63 | 138 | 4.3 | 9.6 | 0.00 | 0.00 | 0.00 | 88 | 1015.1 |
| 20260903172754 | 63 | 153 | 4.3 | 9.6 | 0.00 | 0.00 | 0.00 | 88 | 1015.1 |
| 20260903172254 | 63 | 126 | 5.2 | 10.4 | 0.00 | 0.00 | 0.00 | 88 | 1015.1 |
| 20260903171754 | 63 | 150 | 6.1 | 10.4 | 0.00 | 0.00 | 0.00 | 89 | 1015.1 |
| 20260903171252 | 63 | 144 | 6.1 | 9.6 | 0.00 | 0.00 | 0.00 | 89 | 1015.1 |
| 20260903170753 | 62 | 122 | 5.2 | 9.6 | 0.00 | 0.00 | 0.00 | 89 | 1015.1 |
| 20260903170359 | 62 | 107 | 6.1 | 10.4 | 0.00 | 0.00 | 0.00 | 89 | 1015.0 |
| 20260903170255 | 63 | 94 | 5.2 | 10.4 | 0.00 | 0.00 | 0.00 | 89 | 1015.1 |
| 20260903170251 | 62 | 142 | 4.3 | 9.6 | 0.00 | 0.00 | 0.00 | 90 | 1015.0 |
| 20260903164750 | 63 | 109 | 6.1 | 8.7 | 0.00 | 0.00 | 0.00 | 88 | 1014.9 |
| 20260903164250 | 63 | 99 | 6.1 | 8.7 | 0.00 | 0.00 | 0.00 | 89 | 1014.9 |
| 20260903163754 | 63 | 120 | 5.2 | 8.7 | 0.00 | 0.00 | 0.00 | 88 | 1014.9 |
| 20260903163750 | 63 | 131 | 6.1 | 8.7 | 0.00 | 0.00 | 0.00 | 88 | 1014.9 |
| 20260903162750 | 64 | 119 | 4.3 | 7.8 | 0.00 | 0.00 | 0.00 | 89 | 1014.9 |
| 20260903162248 | 63 | 113 | 4.3 | 7.8 | 0.00 | 0.00 | 0.00 | 90 | 1014.9 |
| 20260903161752 | 62 | 116 | 3.5 | 8.7 | 0.00 | 0.00 | 0.00 | 92 | 1014.9 |
| 20260903161748 | 63 | 134 | 4.3 | 8.7 | 0.00 | 0.00 | 0.00 | 92 | 1014.9 |
| 20260903160746 | 62 | 115 | 0.9 | 7.0 | 0.00 | 0.00 | 0.00 | 93 | 1014.9 |
| 20260903160246 | 62 | 107 | 0.0 | 5.2 | 0.00 | 0.00 | 0.00 | 94 | 1014.8 |
| 20260903155746 | 62 | 112 | 0.9 | 6.1 | 0.00 | 0.00 | 0.00 | 94 | 1014.8 |
| 20260903155246 | 62 | 121 | 1.7 | 6.1 | 0.00 | 0.00 | 0.00 | 95 | 1014.8 |
| 20260903154746 | 62 | 92 | 0.9 | 6.1 | 0.00 | 0.00 | 0.00 | 95 | 1014.6 |
| 20260903154248 | 61 | 109 | 0.0 | 0.0 | 0.00 | 0.00 | 0.00 | 96 | 1014.8 |
| 20260903153746 | 61 | 82 | 0.0 | 0.9 | 0.00 | 0.00 | 0.00 | 96 | 1014.8 |
| 20260903153246 | 61 | 98 | 0.0 | 0.9 | 0.00 | 0.00 | 0.00 | 96 | 1014.9 |
| 20260903152747 | 60 | 73 | 0.0 | 0.0 | 0.00 | 0.00 | 0.00 | 97 | 1014.8 |
| 20260903152249 | 60 | 42 | 0.0 | 0.0 | 0.00 | 0.00 | 0.00 | 97 | 1014.6 |
| 20260903152245 | 60 | 63 | 0.0 | 0.0 | 0.00 | 0.00 | 0.00 | 97 | 1014.8 |
| 20260903151851 | 59 | 47 | 0.0 | 0.0 | 0.00 | 0.00 | 0.00 | 97 | 1014.8 |
| 20260903150744 | 59 | 54 | 0.0 | 5.2 | 0.00 | 0.00 | 0.00 | 97 | 1014.8 |
| 20260903150244 | 59 | 53 | 0.0 | 5.2 | 0.00 | 0.00 | 0.00 | 96 | 1014.6 |
| 20260903145744 | 59 | 47 | 0.0 | 7.0 | 0.00 | 0.00 | 0.00 | 96 | 1014.6 |
| 20260903145244 | 58 | 40 | 1.7 | 7.0 | 0.00 | 0.00 | 0.00 | 96 | 1014.8 |
| 20260903144743 | 58 | 39 | 4.3 | 6.1 | 0.00 | 0.00 | 0.00 | 96 | 1014.5 |
| 20260903144243 | 58 | 31 | 5.2 | 7.8 | 0.00 | 0.00 | 0.00 | 96 | 1014.5 |
| 20260903143744 | 58 | 355 | 5.2 | 9.6 | 0.00 | 0.00 | 0.00 | 96 | 1014.4 |
| 20260903143244 | 58 | 32 | 6.1 | 9.6 | 0.00 | 0.00 | 0.00 | 96 | 1014.4 |
| 20260903142744 | 58 | 28 | 7.0 | 9.6 | 0.00 | 0.00 | 0.00 | 96 | 1014.4 |
| 20260903142244 | 58 | 46 | 6.1 | 9.6 | 0.00 | 0.00 | 0.00 | 96 | 1014.3 |
| 20260903141744 | 58 | 42 | 4.3 | 7.8 | 0.00 | 0.00 | 0.00 | 96 | 1014.3 |
| 20260903141244 | 58 | 37 | 5.2 | 7.8 | 0.00 | 0.00 | 0.00 | 96 | 1014.3 |
| 20260903140744 | 58 | 21 | 5.2 | 8.7 | 0.00 | 0.00 | 0.00 | 96 | 1014.2 |
| 20260903140243 | 58 | 38 | 5.2 | 8.7 | 0.00 | 0.00 | 0.00 | 96 | 1014.1 |
| 20260903135744 | 58 | 29 | 5.2 | 8.7 | 0.00 | 0.00 | 0.00 | 95 | 1014.2 |
| 20260903135244 | 58 | 24 | 4.3 | 7.0 | 0.00 | 0.00 | 0.00 | 95 | 1014.1 |
| 20260903134744 | 58 | 22 | 5.2 | 7.0 | 0.00 | 0.00 | 0.00 | 95 | 1014.1 |
| 20260903134244 | 58 | 14 | 5.2 | 7.0 | 0.00 | 0.00 | 0.00 | 95 | 1014.1 |
| 20260903133748 | 58 | 38 | 5.2 | 7.8 | 0.00 | 0.00 | 0.00 | 94 | 1014.1 |
| 20260903133744 | 58 | 17 | 4.3 | 7.0 | 0.00 | 0.00 | 0.00 | 95 | 1014.1 |
| 20260903132744 | 58 | 36 | 5.2 | 7.8 | 0.00 | 0.00 | 0.00 | 94 | 1014.1 |
| 20260903132244 | 58 | 24 | 5.2 | 7.8 | 0.00 | 0.00 | 0.00 | 94 | 1014.2 |
| 20260903131744 | 58 | 32 | 6.1 | 7.8 | 0.00 | 0.00 | 0.00 | 93 | 1014.1 |
| 20260903131244 | 58 | 30 | 4.3 | 7.8 | 0.00 | 0.00 | 0.00 | 93 | 1014.2 |
| 20260903130743 | 58 | 22 | 3.5 | 7.0 | 0.00 | 0.00 | 0.00 | 92 | 1014.2 |
| 20260903130242 | 58 | 28 | 2.6 | 4.3 | 0.00 | 0.00 | 0.00 | 91 | 1014.1 |
| 20260903125741 | 59 | 37 | 2.6 | 4.3 | 0.00 | 0.00 | 0.00 | 89 | 1014.1 |
| 20260903125242 | 59 | 23 | 1.7 | 4.3 | 0.00 | 0.00 | 0.00 | 86 | 1014.1 |
| 20260903124748 | 61 | 44 | 0.9 | 2.6 | 0.00 | 0.00 | 0.00 | 79 | 1014.1 |
| 20260903124743 | 60 | 38 | 0.9 | 3.5 | 0.00 | 0.00 | 0.00 | 84 | 1014.1 |
| 20260903123742 | 60 | 57 | 0.9 | 2.6 | 0.00 | 0.00 | 0.00 | 75 | 1014.1 |
| 20260903123242 | 60 | 24 | 0.9 | 2.6 | 0.00 | 0.00 | 0.00 | 85 | 1014.1 |
| 20260903122742 | 60 | 25 | 1.7 | 3.5 | 0.00 | 0.00 | 0.00 | 87 | 1014.1 |
| 20260903122242 | 60 | 32 | 2.6 | 4.3 | 0.00 | 0.00 | 0.00 | 85 | 1014.1 |
| 20260903121742 | 61 | 33 | 1.7 | 3.5 | 0.00 | 0.00 | 0.00 | 83 | 1014.1 |
| 20260903121242 | 61 | 34 | 0.9 | 3.5 | 0.00 | 0.00 | 0.00 | 77 | 1014.0 |
| 20260903120743 | 61 | 57 | 0.9 | 3.5 | 0.00 | 0.00 | 0.00 | 79 | 1014.1 |
| 20260903120349 | 61 | 40 | 0.9 | 2.6 | 0.00 | 0.00 | 0.00 | 79 | 1014.2 |
| 20260903120246 | 61 | 41 | 1.7 | 2.6 | 0.00 | 0.00 | 0.00 | 80 | 1014.2 |
| 20260903120242 | 61 | 45 | 1.7 | 3.5 | 0.00 | 0.00 | 0.00 | 80 | 1014.2 |
| 20260903114746 | 62 | 37 | 0.9 | 3.5 | 0.00 | 0.00 | 0.00 | 73 | 1014.2 |
| 20260903114742 | 62 | 40 | 0.9 | 3.5 | 0.00 | 0.00 | 0.00 | 76 | 1014.2 |
| 20260903113742 | 63 | 43 | 0.9 | 2.6 | 0.00 | 0.00 | 0.00 | 69 | 1014.2 |
| 20260903113242 | 64 | 55 | 0.0 | 2.6 | 0.00 | 0.00 | 0.00 | 67 | 1014.3 |
| 20260903112742 | 64 | 94 | 0.0 | 2.6 | 0.00 | 0.00 | 0.00 | 59 | 1014.3 |
| 20260903112242 | 64 | 94 | 0.0 | 2.6 | 0.00 | 0.00 | 0.00 | 59 | 1014.3 |
| 20260903111742 | 64 | 94 | 0.9 | 5.2 | 0.00 | 0.00 | 0.00 | 57 | 1014.2 |
| 20260903111239 | 64 | 94 | 1.7 | 5.2 | 0.00 | 0.00 | 0.00 | 54 | 1014.3 |
| 20260903110745 | 64 | 97 | 1.7 | 5.2 | 0.00 | 0.00 | 0.00 | 54 | 1014.4 |
| 20260903110739 | 64 | 97 | 1.7 | 5.2 | 0.00 | 0.00 | 0.00 | 53 | 1014.3 |
| 20260903105746 | 63 | 87 | 0.0 | 2.6 | 0.00 | 0.00 | 0.00 | 58 | 1014.4 |
| 20260903105740 | 63 | 90 | 0.9 | 5.2 | 0.00 | 0.00 | 0.00 | 57 | 1014.4 |
| 20260903104738 | 63 | 87 | 0.9 | 2.6 | 0.00 | 0.00 | 0.00 | 58 | 1014.3 |
| 20260903104243 | 63 | 57 | 0.0 | 1.7 | 0.00 | 0.00 | 0.00 | 61 | 1014.5 |
| 20260903104238 | 63 | 88 | 0.0 | 2.6 | 0.00 | 0.00 | 0.00 | 59 | 1014.5 |
| 20260903103238 | 63 | 57 | 0.0 | 0.0 | 0.00 | 0.00 | 0.00 | 64 | 1014.5 |
| 20260903102737 | 63 | 57 | 0.0 | 0.0 | 0.00 | 0.00 | 0.00 | 61 | 1014.5 |
| 20260903102244 | 64 | 144 | 0.0 | 0.0 | 0.00 | 0.00 | 0.00 | 56 | 1014.5 |
| 20260903102237 | 63 | 19 | 0.0 | 0.0 | 0.00 | 0.00 | 0.00 | 63 | 1014.5 |
| 20260903101737 | 64 | 19 | 0.0 | 0.0 | 0.00 | 0.00 | 0.00 | 58 | 1014.5 |
| 20260903100737 | 64 | 144 | 0.0 | 0.0 | 0.00 | 0.00 | 0.00 | 55 | 1014.6 |
| 20260903100236 | 64 | 144 | 0.0 | 0.0 | 0.00 | 0.00 | 0.00 | 55 | 1014.5 |
| 20260903095735 | 64 | 144 | 0.0 | 0.0 | 0.00 | 0.00 | 0.00 | 54 | 1014.6 |
| 20260903095236 | 64 | 144 | 0.0 | 0.0 | 0.00 | 0.00 | 0.00 | 53 | 1014.6 |
| 20260903094736 | 65 | 144 | 0.0 | 1.7 | 0.00 | 0.00 | 0.00 | 54 | 1014.6 |
| 20260903094344 | 65 | 135 | 2.6 | 4.3 | 0.00 | 0.00 | 0.00 | 55 | 1014.9 |
| 20260903094237 | 65 | 144 | 0.9 | 1.7 | 0.00 | 0.00 | 0.00 | 55 | 1014.8 |
| 20260903093741 | 65 | 142 | 1.7 | 3.5 | 0.00 | 0.00 | 0.00 | 55 | 1014.8 |
| 20260903093736 | 65 | 143 | 0.9 | 1.7 | 0.00 | 0.00 | 0.00 | 56 | 1014.8 |
| 20260903092235 | 65 | 129 | 2.6 | 4.3 | 0.00 | 0.00 | 0.00 | 55 | 1015.0 |
| 20260903091735 | 65 | 130 | 2.6 | 3.5 | 0.00 | 0.00 | 0.00 | 55 | 1015.1 |
| 20260903091234 | 64 | 128 | 1.7 | 3.5 | 0.00 | 0.00 | 0.00 | 56 | 1015.1 |